Flag for Congo Weather past 2 weeks in Pointe-Noire, Congo

Now
77 °F

Passing clouds.


Feels Like: 78 °F
Forecast: 74 / 81 °F
Wind: 7 mph from South

Location: Pointe Airport-Noire

Current Time: Oct 2, 2014 at 6:21:34 AM

Latest Report: Oct 2, 2014 at 5:00 AM


Visibility: 5 mi

Pressure: 29.92 "Hg

Humidity: 89%

Dew point: 73 °F

Location of Pointe-NoireLocation

Historic Weather in Pointe-Noire — Graph

°F

Pointe-Noire temperature yesterday

Maximum temperature yesterday: 82 °F (at 11:00 AM)
Minimum temperature yesterday: 75 °F (at 3:00 AM)
Average temperature yesterday: 79 °F

Past Weeks' High & Low Weather Summary

 TemperatureHumidityPressure
High82 °F (Sep 20, 1:00 PM)100% (Sep 19, 5:00 AM)30.01 "Hg (Sep 19, 5:00 AM)
Low72 °F (Sep 19, 5:00 AM)62% (Sep 27, 2:00 PM)29.83 "Hg (Sep 22, 4:00 PM)
Average76 °F83%29.93 "Hg
* Reported Sep 17 5:00 AM — Oct 2 5:00 AM, Pointe-Noire, Weather by CustomWeather, © 2014

Note: Actual official high and low records may vary slightly from our data, if they occured in-between our weather recording intervals... More about our weather records

Advertising

Pointe-Noire weather history for previous 24 hours

 ConditionsComfort  
Time TempWeatherWind HumidityBarometerVisibility
5:00 AM
Oct 2
77 °FPassing clouds.7 mph89%29.92 "Hg5 mi
4:00 AM77 °FOvercast.7 mph89%29.92 "Hg5 mi
3:00 AM79 °FOvercast.12 mph84%29.89 "Hg5 mi
2:00 AM79 °FOvercast.12 mph84%29.89 "Hg5 mi
1:00 AM79 °FMostly cloudy.12 mph84%29.89 "Hg5 mi
12:00 AM79 °FMostly cloudy.9 mph84%29.92 "Hg5 mi
11:00 PM
Oct 1
79 °FPartly cloudy.7 mph84%29.92 "Hg5 mi
10:00 PM79 °FPartly cloudy.7 mph84%29.92 "Hg5 mi
9:00 PM79 °FPartly cloudy.9 mph84%29.92 "HgN/A
8:00 PM79 °FPassing clouds.12 mph79%29.92 "HgN/A
7:00 PM79 °FPassing clouds.9 mph79%29.89 "HgN/A
6:00 PM82 °FPassing clouds.9 mph70%29.89 "HgN/A
5:00 PM82 °FPassing clouds.12 mph70%29.86 "HgN/A
4:00 PM82 °FPassing clouds.12 mph70%29.83 "HgN/A
3:00 PM82 °FScattered clouds.12 mph70%29.86 "HgN/A
2:00 PM82 °FBroken clouds.16 mph70%29.89 "HgN/A
1:00 PM82 °FScattered clouds.7 mph70%29.92 "HgN/A
12:00 PM82 °FScattered clouds.12 mph70%29.92 "HgN/A
11:00 AM82 °FScattered clouds.9 mph70%29.92 "HgN/A
10:00 AM81 °FScattered clouds.9 mph74%29.92 "HgN/A
9:00 AM79 °FScattered clouds.9 mph84%29.92 "Hg5 mi
8:00 AM77 °FPartly sunny.7 mph83%29.92 "Hg5 mi
7:00 AM75 °FOvercast.5 mph89%29.95 "Hg5 mi
6:00 AM75 °FMore clouds than sun.5 mph89%29.95 "Hg5 mi
Weather by CustomWeather, © 2014

See weather overviewHow to use our weather pages